Regional Weather Roundup
Issued by NWS

Home | Current Version | Previous Version | Graphics & Text | Print | Product List | Glossary On
Versions: 1 2 3 4 5 6 7 8 9 10 11 12 13 14 15 16 17 18 19 20 21 22 23 24 25 26 27
000
ASUS43 KDMX 231107
RWRIA

WEATHER ROUNDUP FOR IOWA
NATIONAL WEATHER SERVICE DES MOINES IA
600 AM CDT WED APR 23 2014

NOTE: "FAIR" INDICATES FEW OR NO CLOUDS BELOW 12,000 FEET WITH NO
SIGNIFICANT WEATHER AND/OR OBSTRUCTIONS TO VISIBILITY.

* - THESE STATIONS ARE NOT NWS STATIONS...THUS NOT UNDER NWS
QUALITY CONTROL.  THEY ALSO DO NOT REPORT WEATHER SUCH
AS PRECIPITATION OR FOG.

IAZ001>003-012>014-020>022-031>034-043>046-231200-
   NORTHWEST IOWA

CITY           SKY/WX    TMP DP  RH WIND       PRES   REMARKS
CARROLL *      CLOUDY    48  34  57 SE10      30.00R
CHEROKEE *     LGT RAIN  50  36  57 SE15      29.97R
DENISON *      CLOUDY    50  34  53 SE14G21   29.96R
LE MARS *      MOCLDY    50  39  66 E13G21    29.92R
ORANGE CITY *  CLOUDY    52  36  54 SE12G18   29.94R
SHELDON *      MOCLDY    48  34  57 SE15      29.96R
SIOUX CITY     CLOUDY    51  38  60 SE20      29.89F
SPENCER        CLOUDY    49  33  54 SE17      29.98S
STORM LAKE *   CLOUDY    48  34  57 SE17      29.99R
$$

IAZ055>058-069>071-079>083-090>094-231200-
   SOUTHWEST IOWA

CITY           SKY/WX    TMP DP  RH WIND       PRES   REMARKS
ATLANTIC *     CLOUDY    52  32  46 SE12G17   29.97R
AUDUBON *      PTCLDY    48  32  53 SE10      29.99S
CLARINDA *     CLOUDY    54  34  47 SE9       29.99R
COUNCIL BLFS * CLOUDY    52  36  54 SE15G21   29.92F
CRESTON *      CLOUDY    50  32  50 SE17      30.00S
HARLAN  *      CLOUDY    52  34  50 SE14      30.00R
LAMONI         CLOUDY    49  32  52 SE6       30.02S
RED OAK *      CLOUDY    54  34  47 SE9       29.96R
SHENANDOAH *   CLOUDY    54  36  50 SE14      29.96S
$$

IAZ047>049-059>061-072>074-084-231200-
   CENTRAL IOWA

CITY           SKY/WX    TMP DP  RH WIND       PRES   REMARKS
AMES           MOCLDY    48  29  47 E14G20    30.03F
ANKENY *       MOCLDY    48  32  53 SE12      30.03S
CHARITON *     CLOUDY    46  34  61 E9        30.03S
DES MOINES     MOCLDY    50  33  52 SE9       30.03S
GRINNELL*      MOCLDY    45  32  61 E10       30.06F
KNOXVILLE *    CLOUDY    48  32  53 E10       30.04R
MARSHALLTOWN   CLOUDY    44  31  60 E13       30.06S
NEWTON *       PTCLDY    46  30  53 E16       30.05F
PELLA *        MOCLDY    45  32  61 SE8       30.07R
PERRY *        MOCLDY    50  30  46 SE13      30.01S
$$

IAZ004>006-015-016-023>025-035-036-231200-
   NORTH CENTRAL IOWA

CITY           SKY/WX    TMP DP  RH WIND       PRES   REMARKS
ALGONA *       CLOUDY    48  30  49 SE14      30.03R
CLARION *      CLOUDY    46  30  53 SE20G26   30.03R
ESTHERVILLE    CLOUDY    46  32  58 SE16      29.99S
FORT DODGE *   CLOUDY    48  30  49 SE15      30.02S
MASON CITY     CLOUDY    44  31  60 SE17      30.06F
FOREST CITY *  CLOUDY    45  32  61 SE12G17   30.04R
IOWA FALLS *   CLOUDY    45  30  57 E15       30.06S
$$

IAZ007>011-017>019-026>030-037>042-050>054-066-231200-
   NORTHEAST IOWA

CITY           SKY/WX    TMP DP  RH WIND       PRES   REMARKS
CEDAR RAPIDS   CLOUDY    41  34  76 E8        30.11R
CHARLES CITY * MOCLDY    43  30  61 SE16      30.10S
CLINTON *      CLEAR     34  27  75 E6        30.18R WCI  29
DECORAH *      PTCLDY    39  28  65 SE8       30.12S WCI  34
DUBUQUE        CLEAR     33  27  78 CALM      30.14R
MONTICELLO *   PTCLDY    39  32  75 SE7       30.14R WCI  34
OELWEIN *      CLOUDY   N/A N/A N/A SE12      30.12S
WATERLOO       CLOUDY    44  29  55 E13       30.10S
$$

IAZ064-065-067-068-078-231200-
   EAST CENTRAL IOWA

CITY           SKY/WX    TMP DP  RH WIND       PRES   REMARKS
DAVENPORT      CLEAR     35  28  75 E7        30.14R WCI  29
IOWA CITY      CLOUDY    42  33  70 E9        30.14R
MT. PLEASANT * PTCLDY    41  32  70 E9        30.11R
MUSCATINE *    CLOUDY    43  30  61 E6        30.14R
QUAD CITIES    CLEAR     33  29  85 E5        30.14R WCI  29
$$

IAZ062-063-075>077-085>089-095>099-231200-
   SOUTHEAST IOWA

CITY           SKY/WX    TMP DP  RH WIND       PRES   REMARKS
BURLINGTON     CLEAR     41  31  67 E9        30.11R
FAIRFIELD *    PTCLDY    41  32  70 E12       30.10R
FORT MADISON * CLEAR     41  32  70 SE12      30.12R
KEOKUK *       CLEAR     41  32  70 E14       30.10R
OSKALOOSA *      N/A     43  32  65 E12       30.08S
CENTERVILLE *  CLOUDY    45  32  61 E7        30.06R
OTTUMWA        PTCLDY    43  32  65 E9        30.07R
WASHINGTON *   CLOUDY    41  34  75 E8        30.12R
$$

ABBREVIATIONS USED IN REMARKS
   TC - TEMPERATURES IN CELSIUS
  WCI - WIND CHILL INDEX
   HX - HEAT INDEX
  VSB - VISIBILITY
$$




USA.gov is the U.S. government's official web portal to all federal, state and local government web resources and services.